Location: Unspecified
(0.0000°N, 0.0000°E)
Time: 07:26:41
(UTC+01:00)

Resurs 01 Rocket - Visible Passes

Search period start: 19 December 2014 00:00
Search period end: 29 December 2014 00:00
Orbit: 635 x 647 km, 98.2° (Epoch: 18 December)

Date Brightness Start Highest point End Pass type
(mag) Time Alt. Az. Time Alt. Az. Time Alt. Az.
19 Dec 5.3 06:05:12 10° E 06:06:18 11° ESE 06:07:23 10° ESE visible
19 Dec 4.4 19:51:01 10° SSW 19:54:24 22° WSW 19:57:47 10° NW visible
20 Dec 4.5 06:26:25 10° NE 06:29:54 23° ESE 06:33:24 10° SSE visible
22 Dec 2.8 19:24:47 10° S 19:29:04 49° WSW 19:33:20 10° NNW visible
23 Dec 4.3 19:49:11 10° SSW 19:52:41 23° WSW 19:56:11 10° NW visible
24 Dec 4.6 06:24:48 10° NE 06:28:11 22° ESE 06:31:34 10° SSE visible
24 Dec 5.2 20:15:12 10° WSW 20:16:17 11° WSW 20:17:22 10° W visible
26 Dec 2.6 19:23:01 10° S 19:27:20 53° WSW 19:31:37 10° NNW visible
27 Dec 4.2 19:47:20 10° SSW 19:50:57 25° WSW 19:54:32 10° NW visible
28 Dec 4.6 06:23:11 10° NE 06:26:26 20° ESE 06:29:42 10° SSE visible
28 Dec 5.1 20:12:59 10° WSW 20:14:32 12° WSW 20:16:05 10° W visible
